Overview Statistics Trail Chart Weather Telemetry Raw packets
 

This is the latest recevied weather packets stored in our database for station/object PA5MB-15. If no packets are shown the sender has not sent any weather packets the latest 10 day(s).

<< 45 46 47 48 49 50 51 >>
Time Temp. Humidity Pressure Rain* Wind** Luminosity Snow
1777728626 23.33° C 54% 1017.9 hPa 0 mm - 67 W/m² -
1777728331 23.33° C 56% 1018 hPa 0 mm - 33 W/m² -
1777728031 23.89° C 56% 1018 hPa 0 mm - 36 W/m² -
1777727732 24.44° C 54% 1018 hPa 0 mm - 42 W/m² -
1777727424 24.44° C 55% 1018.1 hPa 0 mm - 67 W/m² -
1777727131 25° C 53% 1018.2 hPa 0 mm - 70 W/m² -
1777726832 23.89° C 53% 1018.3 hPa 0 mm - 71 W/m² -
1777726532 23.33° C 57% 1018.3 hPa 0 mm - 71 W/m² -
1777726231 23.89° C 56% 1018.4 hPa 0 mm - 64 W/m² -
1777725933 23.89° C 56% 1018.4 hPa 0 mm - 52 W/m² -
1777725632 23.89° C 56% 1018.4 hPa 0 mm - 57 W/m² -
1777725331 23.33° C 57% 1018.4 hPa 0 mm - 49 W/m² -
1777725025 23.33° C 59% 1018.5 hPa 0 mm - 42 W/m² -
1777724734 22.78° C 59% 1018.5 hPa 0 mm - 46 W/m² -
1777724431 22.78° C 60% 1018.6 hPa 0 mm - 39 W/m² -
1777724121 22.78° C 61% 1018.7 hPa 0 mm - 29 W/m² -
1777723833 22.78° C 61% 1018.7 hPa 0 mm - 32 W/m² -
1777723532 22.22° C 61% 1018.8 hPa 0 mm - 36 W/m² -
1777723250 22.22° C 62% 1018.9 hPa 0 mm - 33 W/m² -
1777722927 22.22° C 62% 1018.9 hPa 0 mm - 37 W/m² -
1777722631 22.22° C 62% 1019 hPa 0 mm - 32 W/m² -
1777722332 22.22° C 62% 1019.1 hPa 0 mm - 46 W/m² -
1777722034 22.22° C 61% 1019.2 hPa 0 mm - 47 W/m² -
1777721727 22.78° C 61% 1019.2 hPa 0 mm - 33 W/m² -
1777721432 22.78° C 58% 1019.2 hPa 0 mm - 51 W/m² -

* Rain latest hour (hover to see other rain measurements)
** Current wind speed in m/s (hover to see current wind gust speed)